contact:dominique.lefevre@mio.osupytheas.fr, maurice.libes@osupytheas.fr, didier.mallarino@osupytheas.fr
Project:EMSO http://www.emso-fr.org/EMSO-France
Depth: 2436.0 m
Title:EMSO Ligure Ouest : Data MII capteur MICROCAT
DateTime_Computer,Latitude,Longitude,Temperature,Conductivity,Pressure,DateTime_Instrument
DateTime_Computer,Latitude,Longitude,degC,S m-1,dbar,DateTime_Instrument
2021-06-07T00:01:58Z,42.805,6.029,13.3050,4.60045,2470.077,2021-6-07T02:03:11Z
2021-06-07T00:05:01Z,42.805,6.029,13.3069,4.60036,2470.04,2021-6-07T02:06:14Z
2021-06-07T00:08:04Z,42.805,6.029,13.3049,4.60045,2470.087,2021-6-07T02:09:17Z
2021-06-07T00:11:07Z,42.805,6.029,13.3054,4.60049,2470.04,2021-6-07T02:12:20Z
2021-06-07T00:14:10Z,42.805,6.029,13.3085,4.60042,2470.03,2021-6-07T02:15:23Z
2021-06-07T00:17:13Z,42.805,6.029,13.3081,4.60040,2470.053,2021-6-07T02:18:26Z
2021-06-07T00:20:17Z,42.805,6.029,13.3054,4.60038,2470.04,2021-6-07T02:21:29Z
2021-06-07T00:23:20Z,42.805,6.029,13.3035,4.60058,2470.03,2021-6-07T02:24:33Z
2021-06-07T00:26:23Z,42.805,6.029,13.3046,4.60035,2470.077,2021-6-07T02:27:36Z
2021-06-07T00:29:26Z,42.805,6.029,13.3060,4.60046,2470.04,2021-6-07T02:30:39Z
2021-06-07T00:32:29Z,42.805,6.029,13.3043,4.60042,2470.063,2021-6-07T02:33:42Z
2021-06-07T00:35:32Z,42.805,6.029,13.3048,4.60044,2470.04,2021-6-07T02:36:45Z
2021-06-07T00:38:35Z,42.805,6.029,13.3051,4.60036,2470.017,2021-6-07T02:39:48Z
2021-06-07T00:41:38Z,42.805,6.029,13.3051,4.60051,2470.053,2021-6-07T02:42:51Z
2021-06-07T00:44:42Z,42.805,6.029,13.3056,4.60049,2470.063,2021-6-07T02:45:54Z
2021-06-07T00:47:45Z,42.805,6.029,13.3058,4.60048,2470.04,2021-6-07T02:48:58Z
2021-06-07T00:50:48Z,42.805,6.029,13.3045,4.60039,2470.077,2021-6-07T02:52:01Z
2021-06-07T00:53:51Z,42.805,6.029,13.3059,4.60051,2470.04,2021-6-07T02:55:04Z
2021-06-07T00:56:54Z,42.805,6.029,13.3050,4.60046,2470.03,2021-6-07T02:58:07Z
2021-06-07T00:59:57Z,42.805,6.029,13.3048,4.60044,2470.017,2021-6-07T03:01:10Z
2021-06-07T01:03:00Z,42.805,6.029,13.3026,4.60054,2470.053,2021-6-07T03:04:13Z
2021-06-07T01:06:03Z,42.805,6.029,13.3093,4.60052,2470.053,2021-6-07T03:07:16Z
2021-06-07T01:09:06Z,42.805,6.029,13.3021,4.60054,2470.053,2021-6-07T03:10:19Z
2021-06-07T01:12:10Z,42.805,6.029,13.3019,4.60076,2470.053,2021-6-07T03:13:22Z
2021-06-07T01:15:13Z,42.805,6.029,13.3064,4.60075,2470.04,2021-6-07T03:16:26Z
2021-06-07T01:18:16Z,42.805,6.029,13.3078,4.60049,2470.03,2021-6-07T03:19:29Z
2021-06-07T01:21:19Z,42.805,6.029,13.3000,4.60113,2470.04,2021-6-07T03:22:32Z
2021-06-07T01:24:22Z,42.805,6.029,13.3030,4.60043,2470.053,2021-6-07T03:25:35Z
2021-06-07T01:27:25Z,42.805,6.029,13.3000,4.60044,2470.04,2021-6-07T03:28:38Z
2021-06-07T01:30:28Z,42.805,6.029,13.2990,4.60067,2470.063,2021-6-07T03:31:41Z
2021-06-07T01:33:31Z,42.805,6.029,13.2993,4.60034,2470.017,2021-6-07T03:34:44Z
2021-06-07T01:36:35Z,42.805,6.029,13.2991,4.60044,2470.077,2021-6-07T03:37:47Z
2021-06-07T01:39:38Z,42.805,6.029,13.2993,4.60045,2470.04,2021-6-07T03:40:50Z
2021-06-07T01:42:41Z,42.805,6.029,13.2995,4.60049,2470.053,2021-6-07T03:43:54Z
2021-06-07T01:45:44Z,42.805,6.029,13.2987,4.60064,2470.04,2021-6-07T03:46:57Z
2021-06-07T01:48:47Z,42.805,6.029,13.2990,4.60038,2470.053,2021-6-07T03:50:00Z
2021-06-07T01:51:50Z,42.805,6.029,13.2989,4.60039,2470.063,2021-6-07T03:53:03Z
2021-06-07T01:54:53Z,42.805,6.029,13.2991,4.60040,2470.063,2021-6-07T03:56:06Z
2021-06-07T01:57:56Z,42.805,6.029,13.2991,4.60041,2470.063,2021-6-07T03:59:09Z
2021-06-07T02:00:59Z,42.805,6.029,13.2990,4.60059,2470.063,2021-6-07T04:02:12Z
2021-06-07T02:04:03Z,42.805,6.029,13.2993,4.60031,2470.077,2021-6-07T04:05:15Z
2021-06-07T02:07:06Z,42.805,6.029,13.2990,4.60036,2470.04,2021-6-07T04:08:19Z
2021-06-07T02:10:09Z,42.805,6.029,13.2991,4.60031,2470.1,2021-6-07T04:11:22Z
2021-06-07T02:13:12Z,42.805,6.029,13.2984,4.60041,2470.063,2021-6-07T04:14:25Z
2021-06-07T02:16:15Z,42.805,6.029,13.2993,4.60050,2470.063,2021-6-07T04:17:28Z
2021-06-07T02:19:18Z,42.805,6.029,13.2991,4.60036,2470.063,2021-6-07T04:20:31Z
2021-06-07T02:22:21Z,42.805,6.029,13.2991,4.60041,2470.063,2021-6-07T04:23:34Z
2021-06-07T02:25:24Z,42.805,6.029,13.2991,4.60029,2470.053,2021-6-07T04:26:37Z
2021-06-07T02:28:28Z,42.805,6.029,13.2990,4.60052,2470.063,2021-6-07T04:29:40Z
2021-06-07T02:31:31Z,42.805,6.029,13.2986,4.60072,2470.077,2021-6-07T04:32:43Z
2021-06-07T02:34:34Z,42.805,6.029,13.2990,4.60061,2470.053,2021-6-07T04:35:47Z
2021-06-07T02:37:37Z,42.805,6.029,13.2989,4.60038,2470.053,2021-6-07T04:38:50Z
2021-06-07T02:40:40Z,42.805,6.029,13.2986,4.60037,2470.063,2021-6-07T04:41:53Z
2021-06-07T02:43:43Z,42.805,6.029,13.2990,4.60029,2470.053,2021-6-07T04:44:56Z
2021-06-07T02:46:46Z,42.805,6.029,13.2993,4.60029,2470.087,2021-6-07T04:47:59Z
2021-06-07T02:49:49Z,42.805,6.029,13.2991,4.60033,2470.124,2021-6-07T04:51:02Z
2021-06-07T02:52:53Z,42.805,6.029,13.2991,4.60033,2470.063,2021-6-07T04:54:05Z
2021-06-07T02:55:56Z,42.805,6.029,13.2991,4.60035,2470.077,2021-6-07T04:57:08Z
2021-06-07T02:58:59Z,42.805,6.029,13.2990,4.60043,2470.087,2021-6-07T05:00:12Z
2021-06-07T03:02:02Z,42.805,6.029,13.2992,4.60070,2470.053,2021-6-07T05:03:15Z
2021-06-07T03:05:05Z,42.805,6.029,13.2993,4.60049,2470.11,2021-6-07T05:06:18Z
2021-06-07T03:08:08Z,42.805,6.029,13.2990,4.60031,2470.063,2021-6-07T05:09:21Z
2021-06-07T03:11:11Z,42.805,6.029,13.2991,4.60024,2470.077,2021-6-07T05:12:24Z
2021-06-07T03:14:14Z,42.805,6.029,13.2992,4.60032,2470.063,2021-6-07T05:15:27Z
2021-06-07T03:17:17Z,42.805,6.029,13.2994,4.60023,2470.04,2021-6-07T05:18:30Z
2021-06-07T03:20:21Z,42.805,6.029,13.2990,4.60031,2470.114,2021-6-07T05:21:33Z
2021-06-07T03:23:24Z,42.805,6.029,13.2990,4.60029,2470.11,2021-6-07T05:24:37Z
2021-06-07T03:26:27Z,42.805,6.029,13.2990,4.60033,2470.087,2021-6-07T05:27:40Z
2021-06-07T03:29:30Z,42.805,6.029,13.2993,4.60027,2470.04,2021-6-07T05:30:43Z
2021-06-07T03:32:33Z,42.805,6.029,13.2991,4.60035,2470.063,2021-6-07T05:33:46Z
2021-06-07T03:35:36Z,42.805,6.029,13.2990,4.60039,2470.087,2021-6-07T05:36:49Z
2021-06-07T03:38:39Z,42.805,6.029,13.2989,4.60039,2470.077,2021-6-07T05:39:52Z
2021-06-07T03:41:42Z,42.805,6.029,13.2993,4.60047,2470.063,2021-6-07T05:42:55Z
2021-06-07T03:44:46Z,42.805,6.029,13.2993,4.60054,2470.077,2021-6-07T05:45:58Z
2021-06-07T03:47:49Z,42.805,6.029,13.2989,4.60064,2470.087,2021-6-07T05:49:02Z
2021-06-07T03:50:52Z,42.805,6.029,13.2993,4.60105,2470.087,2021-6-07T05:52:05Z
2021-06-07T03:53:55Z,42.805,6.029,13.2995,4.60102,2470.063,2021-6-07T05:55:08Z
2021-06-07T03:56:58Z,42.805,6.029,13.2993,4.60065,2470.124,2021-6-07T05:58:11Z
2021-06-07T04:00:01Z,42.805,6.029,13.2996,4.60081,2470.11,2021-6-07T06:01:14Z
2021-06-07T04:03:04Z,42.805,6.029,13.2988,4.60137,2470.114,2021-6-07T06:04:17Z
2021-06-07T04:06:07Z,42.805,6.029,13.2992,4.60098,2470.063,2021-6-07T06:07:20Z
2021-06-07T04:09:10Z,42.805,6.029,13.2993,4.60084,2470.124,2021-6-07T06:10:23Z
2021-06-07T04:12:14Z,42.805,6.029,13.2991,4.60072,2470.1,2021-6-07T06:13:26Z
2021-06-07T04:15:17Z,42.805,6.029,13.2991,4.60058,2470.11,2021-6-07T06:16:30Z
2021-06-07T04:18:20Z,42.805,6.029,13.2990,4.60080,2470.114,2021-6-07T06:19:33Z
2021-06-07T04:21:23Z,42.805,6.029,13.2993,4.60123,2470.087,2021-6-07T06:22:36Z
2021-06-07T04:24:26Z,42.805,6.029,13.2992,4.60113,2470.053,2021-6-07T06:25:39Z
2021-06-07T04:27:29Z,42.805,6.029,13.2993,4.60068,2470.124,2021-6-07T06:28:42Z
2021-06-07T04:30:32Z,42.805,6.029,13.2993,4.60067,2470.11,2021-6-07T06:31:45Z
2021-06-07T04:33:35Z,42.805,6.029,13.2998,4.60069,2470.077,2021-6-07T06:34:48Z
2021-06-07T04:36:39Z,42.805,6.029,13.2998,4.60077,2470.11,2021-6-07T06:37:51Z
2021-06-07T04:39:42Z,42.805,6.029,13.3003,4.60070,2470.063,2021-6-07T06:40:55Z
2021-06-07T04:42:45Z,42.805,6.029,13.2991,4.60117,2470.1,2021-6-07T06:43:58Z
2021-06-07T04:45:48Z,42.805,6.029,13.2997,4.60080,2470.1,2021-6-07T06:47:01Z
2021-06-07T04:48:51Z,42.805,6.029,13.2993,4.60097,2470.077,2021-6-07T06:50:04Z
2021-06-07T04:51:54Z,42.805,6.029,13.2988,4.60127,2470.063,2021-6-07T06:53:07Z
2021-06-07T04:54:57Z,42.805,6.029,13.2994,4.60044,2470.11,2021-6-07T06:56:10Z
2021-06-07T04:58:00Z,42.805,6.029,13.2998,4.60047,2470.1,2021-6-07T06:59:13Z
2021-06-07T05:01:03Z,42.805,6.029,13.3048,4.60064,2470.087,2021-6-07T07:02:16Z
2021-06-07T05:04:07Z,42.805,6.029,13.3054,4.60057,2470.087,2021-6-07T07:05:19Z
2021-06-07T05:07:10Z,42.805,6.029,13.3037,4.60041,2470.11,2021-6-07T07:08:23Z
2021-06-07T05:10:13Z,42.805,6.029,13.3033,4.60056,2470.1,2021-6-07T07:11:26Z
2021-06-07T05:13:16Z,42.805,6.029,13.3039,4.60084,2470.087,2021-6-07T07:14:29Z
2021-06-07T05:16:19Z,42.805,6.029,13.3075,4.60099,2470.077,2021-6-07T07:17:32Z
2021-06-07T05:19:22Z,42.805,6.029,13.3082,4.60049,2470.063,2021-6-07T07:20:35Z
2021-06-07T05:22:25Z,42.805,6.029,13.3084,4.60038,2470.087,2021-6-07T07:23:38Z
2021-06-07T05:25:28Z,42.805,6.029,13.3073,4.60036,2470.077,2021-6-07T07:26:41Z
2021-06-07T05:28:32Z,42.805,6.029,13.3073,4.60046,2470.077,2021-6-07T07:29:44Z
2021-06-07T05:31:35Z,42.805,6.029,13.3066,4.60065,2470.063,2021-6-07T07:32:48Z
2021-06-07T05:34:38Z,42.805,6.029,13.3053,4.60062,2470.053,2021-6-07T07:35:51Z
2021-06-07T05:37:41Z,42.805,6.029,13.3065,4.60057,2470.077,2021-6-07T07:38:54Z
2021-06-07T05:40:44Z,42.805,6.029,13.3074,4.60055,2470.077,2021-6-07T07:41:57Z
2021-06-07T05:43:47Z,42.805,6.029,13.3074,4.60081,2470.053,2021-6-07T07:45:00Z
2021-06-07T05:46:50Z,42.805,6.029,13.3084,4.60062,2470.017,2021-6-07T07:48:03Z
2021-06-07T05:49:53Z,42.805,6.029,13.3087,4.60042,2470.077,2021-6-07T07:51:06Z
2021-06-07T05:52:56Z,42.805,6.029,13.3063,4.60058,2470.053,2021-6-07T07:54:09Z
2021-06-07T05:56:00Z,42.805,6.029,13.3072,4.60070,2470.063,2021-6-07T07:57:12Z
2021-06-07T05:59:03Z,42.805,6.029,13.3061,4.60044,2470.053,2021-6-07T08:00:16Z
2021-06-07T06:02:06Z,42.805,6.029,13.3066,4.60027,2470.03,2021-6-07T08:03:19Z
2021-06-07T06:05:09Z,42.805,6.029,13.3081,4.60041,2470.053,2021-6-07T08:06:22Z
2021-06-07T06:08:12Z,42.805,6.029,13.3063,4.60077,2470.04,2021-6-07T08:09:25Z
2021-06-07T06:11:15Z,42.805,6.029,13.3068,4.60038,2470.053,2021-6-07T08:12:28Z
2021-06-07T06:14:18Z,42.805,6.029,13.3078,4.60047,2470.1,2021-6-07T08:15:31Z
2021-06-07T06:17:21Z,42.805,6.029,13.3077,4.60042,2470.053,2021-6-07T08:18:34Z
2021-06-07T06:20:25Z,42.805,6.029,13.3078,4.60052,2470.053,2021-6-07T08:21:37Z
2021-06-07T06:23:28Z,42.805,6.029,13.3082,4.60046,2470.1,2021-6-07T08:24:41Z
2021-06-07T06:26:31Z,42.805,6.029,13.3078,4.60041,2470.1,2021-6-07T08:27:44Z
2021-06-07T06:29:34Z,42.805,6.029,13.3076,4.60055,2470.04,2021-6-07T08:30:47Z
2021-06-07T06:32:37Z,42.805,6.029,13.3073,4.60051,2470.1,2021-6-07T08:33:50Z
2021-06-07T06:35:40Z,42.805,6.029,13.3076,4.60043,2470.077,2021-6-07T08:36:53Z
2021-06-07T06:38:43Z,42.805,6.029,13.3066,4.60051,2470.1,2021-6-07T08:39:56Z
2021-06-07T06:41:46Z,42.805,6.029,13.3070,4.60043,2470.077,2021-6-07T08:42:59Z
2021-06-07T06:44:49Z,42.805,6.029,13.3056,4.60042,2470.053,2021-6-07T08:46:02Z
2021-06-07T06:47:53Z,42.805,6.029,13.3088,4.60063,2470.063,2021-6-07T08:49:05Z
2021-06-07T06:50:56Z,42.805,6.029,13.3078,4.60040,2470.03,2021-6-07T08:52:09Z
2021-06-07T06:53:59Z,42.805,6.029,13.3078,4.60041,2470.077,2021-6-07T08:55:12Z
2021-06-07T06:57:02Z,42.805,6.029,13.3074,4.60059,2470.077,2021-6-07T08:58:15Z
2021-06-07T07:00:05Z,42.805,6.029,13.3070,4.60069,2470.04,2021-6-07T09:01:18Z
2021-06-07T07:03:08Z,42.805,6.029,13.3063,4.60044,2470.077,2021-6-07T09:04:21Z
2021-06-07T07:06:11Z,42.805,6.029,13.3070,4.60036,2470.04,2021-6-07T09:07:24Z
2021-06-07T07:09:14Z,42.805,6.029,13.3068,4.60062,2470.053,2021-6-07T09:10:27Z
2021-06-07T07:12:18Z,42.805,6.029,13.3069,4.60097,2470.063,2021-6-07T09:13:30Z
2021-06-07T07:15:21Z,42.805,6.029,13.3069,4.60040,2470.087,2021-6-07T09:16:34Z
2021-06-07T07:18:24Z,42.805,6.029,13.3073,4.60036,2470.04,2021-6-07T09:19:37Z
2021-06-07T07:21:27Z,42.805,6.029,13.3064,4.60059,2470.04,2021-6-07T09:22:40Z
2021-06-07T07:24:30Z,42.805,6.029,13.3064,4.60041,2470.077,2021-6-07T09:25:43Z
2021-06-07T07:27:33Z,42.805,6.029,13.3060,4.60046,2470.017,2021-6-07T09:28:46Z
2021-06-07T07:30:36Z,42.805,6.029,13.3061,4.60036,2469.993,2021-6-07T09:31:49Z
2021-06-07T07:33:39Z,42.805,6.029,13.3050,4.60037,2470.04,2021-6-07T09:34:52Z
2021-06-07T07:36:42Z,42.805,6.029,13.3058,4.60033,2470.077,2021-6-07T09:37:55Z
2021-06-07T07:39:46Z,42.805,6.029,13.3078,4.60037,2470.04,2021-6-07T09:40:58Z
2021-06-07T07:42:49Z,42.805,6.029,13.3059,4.60029,2470.053,2021-6-07T09:44:02Z
2021-06-07T07:45:52Z,42.805,6.029,13.3077,4.60055,2470.03,2021-6-07T09:47:05Z
2021-06-07T07:48:55Z,42.805,6.029,13.3067,4.60039,2470.04,2021-6-07T09:50:08Z
2021-06-07T07:51:58Z,42.805,6.029,13.3076,4.60061,2470.017,2021-6-07T09:53:11Z
2021-06-07T07:55:01Z,42.805,6.029,13.3067,4.60033,2470.03,2021-6-07T09:56:14Z
2021-06-07T07:58:04Z,42.805,6.029,13.3078,4.60046,2470.053,2021-6-07T09:59:17Z
2021-06-07T08:01:07Z,42.805,6.029,13.3054,4.60072,2470.03,2021-6-07T10:02:20Z
2021-06-07T08:04:11Z,42.805,6.029,13.3063,4.60052,2470.007,2021-6-07T10:05:23Z
2021-06-07T08:07:14Z,42.805,6.029,13.3063,4.60058,2470.017,2021-6-07T10:08:27Z
2021-06-07T08:10:17Z,42.805,6.029,13.3058,4.60122,2470.017,2021-6-07T10:11:30Z
2021-06-07T08:13:20Z,42.805,6.029,13.3057,4.60051,2469.984,2021-6-07T10:14:33Z
2021-06-07T08:16:23Z,42.805,6.029,13.3061,4.60052,2469.993,2021-6-07T10:17:36Z
2021-06-07T08:19:26Z,42.805,6.029,13.3061,4.60072,2469.97,2021-6-07T10:20:39Z
2021-06-07T08:22:29Z,42.805,6.029,13.3070,4.60022,2469.97,2021-6-07T10:23:42Z
2021-06-07T08:25:32Z,42.805,6.029,13.3063,4.60079,2469.993,2021-6-07T10:26:45Z
2021-06-07T08:28:35Z,42.805,6.029,13.3054,4.60046,2469.993,2021-6-07T10:29:48Z
2021-06-07T08:31:39Z,42.805,6.029,13.3051,4.60026,2469.984,2021-6-07T10:32:52Z
2021-06-07T08:34:42Z,42.805,6.029,13.3042,4.60021,2469.984,2021-6-07T10:35:55Z
2021-06-07T08:37:45Z,42.805,6.029,13.3031,4.60027,2469.947,2021-6-07T10:38:58Z
2021-06-07T08:40:48Z,42.805,6.029,13.3044,4.60038,2469.923,2021-6-07T10:42:01Z
2021-06-07T08:43:51Z,42.805,6.029,13.3066,4.60035,2469.96,2021-6-07T10:45:04Z
2021-06-07T08:46:54Z,42.805,6.029,13.3063,4.60034,2469.937,2021-6-07T10:48:07Z
2021-06-07T08:49:57Z,42.805,6.029,13.3056,4.60069,2469.984,2021-6-07T10:51:10Z
2021-06-07T08:53:00Z,42.805,6.029,13.3051,4.60052,2469.96,2021-6-07T10:54:13Z
2021-06-07T08:56:04Z,42.805,6.029,13.3055,4.60049,2469.947,2021-6-07T10:57:17Z
2021-06-07T08:59:07Z,42.805,6.029,13.3055,4.60025,2469.937,2021-6-07T11:00:20Z
2021-06-07T09:02:10Z,42.805,6.029,13.3063,4.60034,2469.96,2021-6-07T11:03:23Z
2021-06-07T09:05:13Z,42.805,6.029,13.3048,4.60039,2469.96,2021-6-07T11:06:26Z
2021-06-07T09:08:16Z,42.805,6.029,13.3032,4.60057,2469.97,2021-6-07T11:09:29Z
2021-06-07T09:11:19Z,42.805,6.029,13.3015,4.60033,2469.933,2021-6-07T11:12:32Z
2021-06-07T09:14:22Z,42.805,6.029,13.3009,4.60031,2470.007,2021-6-07T11:15:35Z
2021-06-07T09:17:25Z,42.805,6.029,13.3019,4.60035,2469.984,2021-6-07T11:18:38Z
2021-06-07T09:20:29Z,42.805,6.029,13.3025,4.60055,2469.947,2021-6-07T11:21:41Z
2021-06-07T09:23:32Z,42.805,6.029,13.3051,4.60049,2469.96,2021-6-07T11:24:45Z
2021-06-07T09:26:35Z,42.805,6.029,13.3007,4.60022,2469.947,2021-6-07T11:27:48Z
2021-06-07T09:29:38Z,42.805,6.029,13.3010,4.60024,2469.956,2021-6-07T11:30:51Z
2021-06-07T09:32:41Z,42.805,6.029,13.3009,4.60044,2469.96,2021-6-07T11:33:54Z
2021-06-07T09:35:44Z,42.805,6.029,13.3011,4.60014,2469.947,2021-6-07T11:36:57Z
2021-06-07T09:38:47Z,42.805,6.029,13.3021,4.60018,2469.947,2021-6-07T11:40:00Z
2021-06-07T09:41:50Z,42.805,6.029,13.3026,4.60018,2469.96,2021-6-07T11:43:03Z
2021-06-07T09:44:54Z,42.805,6.029,13.3021,4.60024,2469.947,2021-6-07T11:46:06Z
2021-06-07T09:47:57Z,42.805,6.029,13.3024,4.60027,2469.984,2021-6-07T11:49:10Z
2021-06-07T09:51:00Z,42.805,6.029,13.3031,4.60021,2469.96,2021-6-07T11:52:13Z
2021-06-07T09:54:03Z,42.805,6.029,13.3047,4.60029,2469.947,2021-6-07T11:55:16Z
2021-06-07T09:57:06Z,42.805,6.029,13.3053,4.60021,2469.96,2021-6-07T11:58:19Z
2021-06-07T10:00:09Z,42.805,6.029,13.3048,4.60029,2469.96,2021-6-07T12:01:22Z
2021-06-07T10:03:12Z,42.805,6.029,13.3067,4.60027,2469.914,2021-6-07T12:04:25Z
2021-06-07T10:06:15Z,42.805,6.029,13.3061,4.60019,2469.923,2021-6-07T12:07:28Z
2021-06-07T10:09:19Z,42.805,6.029,13.3073,4.60035,2469.947,2021-6-07T12:10:31Z
2021-06-07T10:12:22Z,42.805,6.029,13.3066,4.60030,2469.937,2021-6-07T12:13:35Z
2021-06-07T10:15:25Z,42.805,6.029,13.3046,4.60041,2469.923,2021-6-07T12:16:38Z
2021-06-07T10:18:28Z,42.805,6.029,13.3042,4.60037,2469.947,2021-6-07T12:19:41Z
2021-06-07T10:21:31Z,42.805,6.029,13.3055,4.60036,2469.914,2021-6-07T12:22:44Z
2021-06-07T10:24:34Z,42.805,6.029,13.3059,4.60046,2469.923,2021-6-07T12:25:47Z
2021-06-07T10:27:37Z,42.805,6.029,13.3057,4.60026,2469.923,2021-6-07T12:28:50Z
2021-06-07T10:30:40Z,42.805,6.029,13.3060,4.60038,2469.96,2021-6-07T12:31:53Z
2021-06-07T10:33:44Z,42.805,6.029,13.3061,4.60033,2469.9,2021-6-07T12:34:56Z
2021-06-07T10:36:47Z,42.805,6.029,13.3056,4.60036,2469.923,2021-6-07T12:38:00Z
2021-06-07T10:39:50Z,42.805,6.029,13.3054,4.60041,2469.937,2021-6-07T12:41:03Z
2021-06-07T10:42:53Z,42.805,6.029,13.3069,4.60047,2469.923,2021-6-07T12:44:06Z
2021-06-07T10:45:56Z,42.805,6.029,13.3067,4.60033,2469.876,2021-6-07T12:47:09Z
2021-06-07T10:48:59Z,42.805,6.029,13.3066,4.60043,2469.923,2021-6-07T12:50:12Z
2021-06-07T10:52:02Z,42.805,6.029,13.3077,4.60050,2469.89,2021-6-07T12:53:15Z
2021-06-07T10:55:05Z,42.805,6.029,13.3080,4.60044,2469.914,2021-6-07T12:56:18Z
2021-06-07T10:58:09Z,42.805,6.029,13.3074,4.60026,2469.876,2021-6-07T12:59:21Z
2021-06-07T11:01:12Z,42.805,6.029,13.3078,4.60035,2469.89,2021-6-07T13:02:25Z
2021-06-07T11:04:15Z,42.805,6.029,13.3076,4.60039,2469.914,2021-6-07T13:05:28Z
2021-06-07T11:07:18Z,42.805,6.029,13.3079,4.60039,2469.89,2021-6-07T13:08:31Z
2021-06-07T11:10:21Z,42.805,6.029,13.3068,4.60032,2469.844,2021-6-07T13:11:34Z
2021-06-07T11:13:24Z,42.805,6.029,13.3062,4.60052,2469.867,2021-6-07T13:14:37Z
2021-06-07T11:16:27Z,42.805,6.029,13.3061,4.60039,2469.867,2021-6-07T13:17:40Z
2021-06-07T11:19:30Z,42.805,6.029,13.3068,4.60056,2469.914,2021-6-07T13:20:43Z
2021-06-07T11:22:34Z,42.805,6.029,13.3064,4.60043,2469.853,2021-6-07T13:23:46Z
2021-06-07T11:25:37Z,42.805,6.029,13.3076,4.60031,2469.867,2021-6-07T13:26:50Z
2021-06-07T11:28:40Z,42.805,6.029,13.3084,4.60036,2469.89,2021-6-07T13:29:53Z
2021-06-07T11:31:43Z,42.805,6.029,13.3071,4.60035,2469.853,2021-6-07T13:32:56Z
2021-06-07T11:34:46Z,42.805,6.029,13.3064,4.60038,2469.9,2021-6-07T13:35:59Z
2021-06-07T11:37:49Z,42.805,6.029,13.3070,4.60049,2469.89,2021-6-07T13:39:02Z
2021-06-07T11:40:52Z,42.805,6.029,13.3070,4.60043,2469.914,2021-6-07T13:42:05Z
2021-06-07T11:43:55Z,42.805,6.029,13.3073,4.60072,2469.9,2021-6-07T13:45:08Z
2021-06-07T11:46:59Z,42.805,6.029,13.3073,4.60046,2469.89,2021-6-07T13:48:11Z
2021-06-07T11:50:02Z,42.805,6.029,13.3067,4.60049,2469.89,2021-6-07T13:51:15Z
2021-06-07T11:53:05Z,42.805,6.029,13.3063,4.60056,2469.923,2021-6-07T13:54:18Z
2021-06-07T11:56:08Z,42.805,6.029,13.3067,4.60064,2469.876,2021-6-07T13:57:21Z
2021-06-07T11:59:11Z,42.805,6.029,13.3069,4.60059,2469.914,2021-6-07T14:00:24Z
2021-06-07T12:02:14Z,42.805,6.029,13.3061,4.60064,2469.947,2021-6-07T14:03:27Z
2021-06-07T12:05:17Z,42.805,6.029,13.3058,4.60072,2469.876,2021-6-07T14:06:30Z
2021-06-07T12:08:20Z,42.805,6.029,13.3055,4.60062,2469.914,2021-6-07T14:09:33Z
2021-06-07T12:11:23Z,42.805,6.029,13.3058,4.60075,2469.89,2021-6-07T14:12:36Z
2021-06-07T12:14:27Z,42.805,6.029,13.3069,4.60092,2469.937,2021-6-07T14:15:39Z
2021-06-07T12:17:30Z,42.805,6.029,13.3068,4.60085,2469.9,2021-6-07T14:18:43Z
2021-06-07T12:20:33Z,42.805,6.029,13.3076,4.60061,2469.923,2021-6-07T14:21:46Z
2021-06-07T12:23:36Z,42.805,6.029,13.3080,4.60067,2469.914,2021-6-07T14:24:49Z
2021-06-07T12:26:39Z,42.805,6.029,13.3072,4.60083,2469.9,2021-6-07T14:27:52Z
2021-06-07T12:29:42Z,42.805,6.029,13.3076,4.60049,2469.923,2021-6-07T14:30:55Z
2021-06-07T12:32:45Z,42.805,6.029,13.3080,4.60043,2469.923,2021-6-07T14:33:58Z
2021-06-07T12:35:49Z,42.805,6.029,13.3083,4.60032,2469.914,2021-6-07T14:37:01Z
2021-06-07T12:38:52Z,42.805,6.029,13.3079,4.60049,2469.951,2021-6-07T14:40:05Z
2021-06-07T12:41:55Z,42.805,6.029,13.3070,4.60049,2469.9,2021-6-07T14:43:08Z
2021-06-07T12:44:58Z,42.805,6.029,13.3071,4.60048,2469.853,2021-6-07T14:46:11Z
2021-06-07T12:48:01Z,42.805,6.029,13.3082,4.60045,2469.876,2021-6-07T14:49:14Z
2021-06-07T12:51:04Z,42.805,6.029,13.3085,4.60055,2469.927,2021-6-07T14:52:17Z
2021-06-07T12:54:07Z,42.805,6.029,13.3078,4.60057,2469.89,2021-6-07T14:55:20Z
2021-06-07T12:57:10Z,42.805,6.029,13.3075,4.60064,2469.876,2021-6-07T14:58:23Z
2021-06-07T13:00:13Z,42.805,6.029,13.3066,4.60087,2469.9,2021-6-07T15:01:26Z
2021-06-07T13:03:17Z,42.805,6.029,13.3068,4.60041,2469.853,2021-6-07T15:04:29Z
2021-06-07T13:06:20Z,42.805,6.029,13.3067,4.60036,2469.914,2021-6-07T15:07:33Z
2021-06-07T13:09:23Z,42.805,6.029,13.3067,4.60042,2469.867,2021-6-07T15:10:36Z
2021-06-07T13:12:26Z,42.805,6.029,13.3074,4.60049,2469.9,2021-6-07T15:13:39Z
2021-06-07T13:15:29Z,42.805,6.029,13.3069,4.60044,2469.876,2021-6-07T15:16:42Z
2021-06-07T13:18:32Z,42.805,6.029,13.3074,4.60035,2469.9,2021-6-07T15:19:45Z
2021-06-07T13:21:35Z,42.805,6.029,13.3076,4.60034,2469.876,2021-6-07T15:22:48Z
2021-06-07T13:24:38Z,42.805,6.029,13.3079,4.60034,2469.914,2021-6-07T15:25:51Z
2021-06-07T13:27:42Z,42.805,6.029,13.3092,4.60038,2469.853,2021-6-07T15:28:54Z
2021-06-07T13:30:45Z,42.805,6.029,13.3082,4.60032,2469.9,2021-6-07T15:31:58Z
2021-06-07T13:33:48Z,42.805,6.029,13.3076,4.60047,2469.914,2021-6-07T15:35:01Z
2021-06-07T13:36:51Z,42.805,6.029,13.3079,4.60043,2469.9,2021-6-07T15:38:04Z
2021-06-07T13:39:54Z,42.805,6.029,13.3080,4.60094,2469.89,2021-6-07T15:41:07Z
2021-06-07T13:42:57Z,42.805,6.029,13.3081,4.60089,2469.876,2021-6-07T15:44:10Z
2021-06-07T13:46:00Z,42.805,6.029,13.3073,4.60041,2469.89,2021-6-07T15:47:13Z
2021-06-07T13:49:03Z,42.805,6.029,13.3084,4.60038,2469.937,2021-6-07T15:50:16Z
2021-06-07T13:52:07Z,42.805,6.029,13.3081,4.60039,2469.89,2021-6-07T15:53:19Z
2021-06-07T13:55:10Z,42.805,6.029,13.3086,4.60054,2469.89,2021-6-07T15:56:23Z
2021-06-07T13:58:13Z,42.805,6.029,13.3076,4.60037,2469.89,2021-6-07T15:59:26Z
2021-06-07T14:01:16Z,42.805,6.029,13.3070,4.60037,2469.9,2021-6-07T16:02:29Z
2021-06-07T14:04:19Z,42.805,6.029,13.3070,4.60032,2469.914,2021-6-07T16:05:32Z
2021-06-07T14:07:22Z,42.805,6.029,13.3064,4.60051,2469.867,2021-6-07T16:08:35Z
2021-06-07T14:10:25Z,42.805,6.029,13.3058,4.60024,2469.867,2021-6-07T16:11:38Z
2021-06-07T14:13:28Z,42.805,6.029,13.3064,4.60021,2469.923,2021-6-07T16:14:41Z
2021-06-07T14:16:32Z,42.805,6.029,13.3065,4.60047,2469.844,2021-6-07T16:17:44Z
2021-06-07T14:19:35Z,42.805,6.029,13.3066,4.60045,2469.876,2021-6-07T16:20:48Z
2021-06-07T14:22:38Z,42.805,6.029,13.3068,4.60026,2469.89,2021-6-07T16:23:51Z
2021-06-07T14:25:41Z,42.805,6.029,13.3089,4.60046,2469.867,2021-6-07T16:26:54Z
2021-06-07T14:28:44Z,42.805,6.029,13.3082,4.60031,2469.89,2021-6-07T16:29:57Z
2021-06-07T14:31:47Z,42.805,6.029,13.3070,4.60026,2469.853,2021-6-07T16:33:00Z
2021-06-07T14:34:50Z,42.805,6.029,13.3072,4.60024,2469.914,2021-6-07T16:36:03Z
2021-06-07T14:37:53Z,42.805,6.029,13.3067,4.60044,2469.9,2021-6-07T16:39:06Z
2021-06-07T14:40:57Z,42.805,6.029,13.3058,4.60035,2469.923,2021-6-07T16:42:09Z
2021-06-07T14:44:00Z,42.805,6.029,13.3053,4.60033,2469.923,2021-6-07T16:45:13Z
2021-06-07T14:47:03Z,42.805,6.029,13.3056,4.60026,2469.923,2021-6-07T16:48:16Z
2021-06-07T14:50:06Z,42.805,6.029,13.3066,4.60039,2469.89,2021-6-07T16:51:19Z
2021-06-07T14:53:09Z,42.805,6.029,13.3076,4.60063,2469.9,2021-6-07T16:54:22Z
2021-06-07T14:56:12Z,42.805,6.029,13.3063,4.60035,2469.914,2021-6-07T16:57:25Z
2021-06-07T14:59:15Z,42.805,6.029,13.3065,4.60069,2469.96,2021-6-07T17:00:28Z
2021-06-07T15:02:18Z,42.805,6.029,13.3059,4.60037,2469.937,2021-6-07T17:03:31Z
2021-06-07T15:05:22Z,42.805,6.029,13.3053,4.60029,2469.914,2021-6-07T17:06:34Z
2021-06-07T15:08:25Z,42.805,6.029,13.3079,4.60044,2469.923,2021-6-07T17:09:37Z
2021-06-07T15:11:28Z,42.805,6.029,13.3073,4.60038,2469.937,2021-6-07T17:12:41Z
2021-06-07T15:14:31Z,42.805,6.029,13.3079,4.60026,2469.937,2021-6-07T17:15:44Z